TimeCDT,TemperatureF,Dew PointF,Humidity,Sea Level PressureIn,VisibilityMPH,Wind Direction,Wind SpeedMPH,Gust SpeedMPH,PrecipitationIn,Events,Conditions,WindDirDegrees,DateUTC
12:53 AM,71.1,69.1,93,29.79,9.0,SSE,11.5,17.3,N/A,,Overcast,160,2013-04-11 05:53:00
1:53 AM,72.0,69.1,91,29.77,9.0,SSE,10.4,-,N/A,,Overcast,160,2013-04-11 06:53:00
2:53 AM,72.0,69.1,91,29.75,10.0,South,13.8,-,N/A,,Overcast,170,2013-04-11 07:53:00
3:53 AM,72.0,69.1,91,29.73,10.0,South,9.2,-,N/A,,Overcast,170,2013-04-11 08:53:00
4:53 AM,72.0,69.1,91,29.72,10.0,South,10.4,-,N/A,,Overcast,180,2013-04-11 09:53:00
5:53 AM,72.0,69.1,91,29.72,10.0,SSE,12.7,-,N/A,,Overcast,160,2013-04-11 10:53:00
6:53 AM,71.1,69.1,93,29.71,7.0,South,9.2,-,N/A,,Overcast,170,2013-04-11 11:53:00
7:53 AM,72.0,70.0,93,29.70,8.0,SSE,12.7,-,N/A,,Overcast,160,2013-04-11 12:53:00
8:53 AM,73.0,70.0,90,29.69,10.0,South,15.0,23.0,N/A,,Overcast,170,2013-04-11 13:53:00
9:53 AM,75.9,70.0,82,29.69,10.0,South,19.6,28.8,N/A,,Mostly Cloudy,180,2013-04-11 14:53:00
10:27 AM,64.4,59.0,83,29.72,10.0,WNW,20.7,27.6,N/A,,Overcast,300,2013-04-11 15:27:00
10:37 AM,60.8,55.4,82,29.73,10.0,NW,15.0,-,N/A,,Overcast,320,2013-04-11 15:37:00
10:39 AM,60.8,55.4,82,29.73,10.0,NNW,17.3,23.0,N/A,,Overcast,330,2013-04-11 15:39:00
10:53 AM,57.0,55.0,93,29.72,4.0,NW,20.7,27.6,0.04,Rain,Rain,320,2013-04-11 15:53:00
11:07 AM,55.4,55.4,100,29.74,2.5,NNW,16.1,23.0,0.08,Rain,Heavy Rain,340,2013-04-11 16:07:00
11:15 AM,55.4,55.4,100,29.74,1.8,NNW,16.1,24.2,0.15,Rain,Heavy Rain,330,2013-04-11 16:15:00
11:19 AM,55.4,53.6,94,29.74,1.2,NNW,16.1,-,0.24,Rain-Thunderstorm,Heavy Rain,330,2013-04-11 16:19:00
11:23 AM,55.4,53.6,94,29.75,0.8,NW,17.3,-,0.32,Rain-Thunderstorm,Heavy Rain,320,2013-04-11 16:23:00
11:30 AM,55.4,53.6,94,29.77,1.5,NW,17.3,-,0.35,Rain-Thunderstorm,Rain,310,2013-04-11 16:30:00
11:35 AM,55.4,55.4,100,29.76,3.0,NW,15.0,-,0.38,Rain-Thunderstorm,Thunderstorms and Rain,310,2013-04-11 16:35:00
11:45 AM,55.4,55.4,100,29.75,1.8,NNW,12.7,23.0,0.47,Rain-Thunderstorm,Heavy Thunderstorms and Rain,340,2013-04-11 16:45:00
11:59 AM,55.4,55.4,100,29.75,3.0,WNW,10.4,20.7,0.02,Rain-Thunderstorm,Heavy Rain,300,2013-04-11 16:59:00
12:13 PM,57.2,55.4,94,29.75,10.0,NNW,12.7,-,0.02,Rain-Thunderstorm,Light Rain,340,2013-04-11 17:13:00
12:29 PM,55.4,55.4,100,29.73,6.0,NNW,15.0,25.3,0.04,Rain,Light Rain,340,2013-04-11 17:29:00
12:53 PM,55.9,54.0,93,29.72,9.0,NNW,18.4,25.3,0.06,Rain,Light Rain,330,2013-04-11 17:53:00
1:07 PM,57.2,55.4,94,29.74,7.0,NW,17.3,27.6,0.03,Rain,Light Rain,320,2013-04-11 18:07:00
1:29 PM,55.4,55.4,100,29.73,8.0,NNW,13.8,24.2,0.05,Rain,Light Rain,340,2013-04-11 18:29:00
1:53 PM,57.0,54.0,89,29.70,10.0,North,12.7,21.9,0.05,,Overcast,350,2013-04-11 18:53:00
2:53 PM,60.1,55.0,83,29.66,10.0,ENE,6.9,-,N/A,,Mostly Cloudy,70,2013-04-11 19:53:00
3:12 PM,60.8,55.4,82,29.68,10.0,Calm,Calm,-,N/A,,Mostly Cloudy,0,2013-04-11 20:12:00
3:40 PM,62.6,55.4,77,29.71,10.0,NW,10.4,-,N/A,,Overcast,310,2013-04-11 20:40:00
3:53 PM,62.1,55.9,80,29.72,10.0,WNW,6.9,-,N/A,,Overcast,290,2013-04-11 20:53:00
4:53 PM,60.1,53.1,78,29.74,10.0,WNW,12.7,-,N/A,,Overcast,300,2013-04-11 21:53:00
5:53 PM,59.0,53.1,81,29.75,10.0,NW,13.8,-,N/A,,Overcast,320,2013-04-11 22:53:00
6:53 PM,57.0,50.0,77,29.75,10.0,NNW,10.4,-,N/A,,Mostly Cloudy,330,2013-04-11 23:53:00
7:04 PM,55.4,51.8,88,29.76,10.0,NW,8.1,-,N/A,,Scattered Clouds,310,2013-04-12 00:04:00
7:53 PM,54.0,50.0,86,29.76,10.0,NNW,5.8,-,N/A,,Clear,330,2013-04-12 00:53:00
8:53 PM,52.0,48.9,89,29.77,10.0,NW,4.6,-,N/A,,Clear,320,2013-04-12 01:53:00
9:53 PM,50.0,48.0,93,29.82,10.0,NNW,4.6,-,N/A,,Clear,330,2013-04-12 02:53:00
10:53 PM,48.9,46.9,93,29.86,10.0,WNW,4.6,-,N/A,,Clear,300,2013-04-12 03:53:00
11:53 PM,48.0,46.9,96,29.85,10.0,NNW,6.9,-,N/A,,Clear,340,2013-04-12 04:53:00